Regional Weather Roundup
Issued by NWS

Home | Current Version | Previous Version | Graphics & Text | Print | Product List | Glossary On
Versions: 1 2 3 4 5 6 7 8 9 10 11 12 13 14 15 16 17 18 19 20 21 22 23 24 25 26 27 28 29 30 31 32 33 34 35 36 37 38 39 40 41 42 43 44 45 46 47 48 49 50
000
ASUS43 KFSD 232002
RWRSD

WEATHER ROUNDUP FOR SOUTH DAKOTA
NATIONAL WEATHER SERVICE SIOUX FALLS SD
300 PM CDT FRI JUN 23 2017

NOTE: "FAIR" INDICATES FEW OR NO CLOUDS BELOW 12,000 FEET WITH NO
SIGNIFICANT WEATHER AND/OR OBSTRUCTIONS TO VISIBILITY.


SDZ001>005-009-010-012>017-232100-
NORTHWEST AND NORTH CENTRAL SOUTH DAKOTA

CITY           SKY/WX    TMP DP  RH WIND       PRES   REMARKS
BUFFALO          N/A     65  28  24 NW30G47   30.10F
FAITH            N/A     67  32  27 N23G32    30.12F
MOBRIDGE       MOSUNNY   69  32  25 NW29G36   30.03S
$$

SDZ012>016-024>037-041>051-057-063-072>074-232100-
SOUTHWEST AND SOUTH CENTRAL SOUTH DAKOTA

CITY           SKY/WX    TMP DP  RH WIND       PRES   REMARKS
RAPID CTY ARPT SUNNY     68  34  28 N24G41    30.15F
PIERRE         SUNNY     69  35  28 NW23G31   30.08S
CUSTER         SUNNY     63  23  21 NW12G18   30.21F
ELLSWORTH AFB  SUNNY     67  34  28 N28G37    30.15F
PHILIP         MOSUNNY   70  34  26 NW22G32   30.11F
PINE RIDGE     SUNNY     70  41  34 VRB3      30.16F
SPEARFISH      FAIR      63  36  36 NW18G28   30.21F
WINNER         FAIR      73  37  27 NW23G36   30.08F
$$

SDZ004>011-016>023-039-040-232100-
NORTHEAST SOUTH DAKOTA

CITY           SKY/WX    TMP DP  RH WIND       PRES   REMARKS
ABERDEEN       MOSUNNY   68  41  37 NW21G28   29.99F
WATERTOWN      CLOUDY    61  47  59 NW18G28   29.98S
BROOKINGS      CLOUDY    61  49  64 NW20G28   29.98S
SISSETON         N/A     68  48  48 NW24G31   29.93S
$$

SDZ017-020-022-023-036>040-048>070-232100-
SOUTHEAST SOUTH DAKOTA

CITY           SKY/WX    TMP DP  RH WIND       PRES   REMARKS
SIOUX FALLS    CLOUDY    67  51  56 NW22G31   29.99R
HURON          PTSUNNY   69  45  41 NW22G30   30.01S
CHAMBERLAIN    SUNNY     70  40  33 NW23G30   30.06F
MITCHELL       PTSUNNY   71  43  36 NW23G31   30.02F
YANKTON        CLOUDY    67  48  50 NW20G26   30.02S
$$

ABBREVIATIONS USED IN REMARKS
   TC - TEMPERATURE IN CELSIUS
  WCI - WIND CHILL INDEX
   HX - HEAT INDEX
  VSB - VISIBILITY





USA.gov is the U.S. government's official web portal to all federal, state and local government web resources and services.